This is the latest recevied weather packets stored in our database for station/object KN6KDD. If no packets are shown the sender has not sent any weather packets the latest 10 day(s).
| Time | Temp. | Humidity | Pressure | Rain* | Wind** | Luminosity | Snow |
|---|---|---|---|---|---|---|---|
| 1777467388 | 8.89° C | 90% | 1357.9 hPa | 0 mm | - | 0 W/m² | - |
| 1777467084 | 8.89° C | 89% | 1358 hPa | 0 mm | - | 0 W/m² | - |
| 1777466781 | 10° C | 87% | 1358 hPa | 0 mm | - | 0 W/m² | - |
| 1777466479 | 10° C | 87% | 1357.9 hPa | 0 mm | - | 0 W/m² | - |
| 1777466175 | 10° C | 88% | 1358.2 hPa | 0 mm | - | 0 W/m² | - |
| 1777465872 | 10° C | 88% | 1358 hPa | 0 mm | - | 0 W/m² | - |
| 1777465568 | 10° C | 90% | 1358.2 hPa | 0 mm | - | 0 W/m² | - |
| 1777465262 | 9.44° C | 91% | 1358.2 hPa | 0 mm | - | 0 W/m² | - |
| 1777464957 | 8.89° C | 93% | 1358.3 hPa | 0 mm | - | 0 W/m² | - |
| 1777464652 | 8.89° C | 96% | 1358.4 hPa | 0 mm | - | 0 W/m² | - |
| 1777464349 | 8.89° C | 96% | 1358.3 hPa | 0 mm | - | 0 W/m² | - |
| 1777464044 | 8.33° C | 96% | 1358.2 hPa | 0 mm | - | 0 W/m² | - |
| 1777463739 | 8.33° C | 96% | 1358.3 hPa | 0 mm | - | 0 W/m² | - |
| 1777463434 | 8.33° C | 95% | 1358.6 hPa | 0 mm | - | 0 W/m² | - |
| 1777463131 | 8.33° C | 94% | 1358.7 hPa | 0 mm | - | 0 W/m² | - |
| 1777462827 | 8.33° C | 92% | 1358.7 hPa | 0 mm | - | 0 W/m² | - |
| 1777462522 | 8.33° C | 91% | 1358.6 hPa | 0 mm | - | 0 W/m² | - |
| 1777462219 | 8.89° C | 91% | 1358.8 hPa | 0 mm | - | 0 W/m² | - |
| 1777461915 | 8.89° C | 90% | 1359 hPa | 0 mm | - | 0 W/m² | - |
| 1777461612 | 8.89° C | 90% | 1359.1 hPa | 0 mm | - | 0 W/m² | - |
| 1777461307 | 8.89° C | 90% | 1359.2 hPa | 0 mm | - | 0 W/m² | - |
| 1777461003 | 8.89° C | 89% | 1359.2 hPa | 0 mm | - | 0 W/m² | - |
| 1777460699 | 8.89° C | 89% | 1359.1 hPa | 0 mm | - | 0 W/m² | - |
| 1777460394 | 8.89° C | 89% | 1359.1 hPa | 0 mm | - | 0 W/m² | - |
| 1777460090 | 8.89° C | 90% | 1358.6 hPa | 0 mm | - | 0 W/m² | - |
* Rain latest hour (hover to see other rain measurements)
** Current wind speed in m/s (hover to see current wind gust speed)